Home   Weather   Pembroke Pines   Past weeks

Flag for USA Past Weather in Pembroke Pines, Florida, USA — Yesterday and Last 2 Weeks

Now
77 °F

Sunny.


Feels Like: 79 °F
Forecast: 68 / 80 °F
Wind: 8 mph from Southeast

Location: North Perry Airport

Current Time: Jan 17, 2017 at 4:51:40 pm

Latest Report: Jan 17, 2017 at 3:53 pm


Visibility: 10 mi

Pressure: 30.20 "Hg

Humidity: 60%

Dew Point: 62 °F

Location of Pembroke PinesLocation

Past Weather in Pembroke Pines — Graph

°F

Pembroke Pines Temperature Yesterday

Maximum temperature yesterday: 78 °F (at 10:53 am)
Minimum temperature yesterday: 70 °F (at 3:53 am)
Average temperature yesterday: 74 °F

High & Low Weather Summary for the Past Weeks

 TemperatureHumidityPressure
High85 °F (Jan 7, 11:53 am)100% (Jan 6, 5:36 am)30.51 "Hg (Jan 6, 5:36 am)
Low46 °F (Jan 8, 6:53 am)37% (Jan 10, 11:53 am)29.85 "Hg (Jan 4, 2:53 pm)
Average71 °F73%30.19 "Hg
* Reported Jan 2 2:53 pm — Jan 17 2:53 pm, Pembroke Pines, Weather by CustomWeather, © 2017

Note: Actual official high and low records may vary slightly from our data, if they occured in-between our weather recording intervals... More about our weather records

Advertising

Pembroke Pines Weather History for the Previous 24 Hours

Scroll right to see more
 ConditionsComfort  
Time TempWeatherWind HumidityBarometerVisibility
2:53 pm
Tue, Jan 17
78 °FScattered clouds.10 mph54%30.19 "Hg10 mi
1:53 pm79 °FPassing clouds.13 mph54%30.20 "Hg10 mi
12:53 pm81 °FBroken clouds.10 mph49%30.22 "Hg10 mi
11:53 am80 °FPassing clouds.13 mph52%30.24 "Hg10 mi
10:53 am79 °FSunny.10 mph52%30.27 "Hg10 mi
9:53 am78 °FSunny.8 mph56%30.26 "Hg10 mi
8:53 am74 °FBroken clouds.6 mph71%30.24 "Hg10 mi
7:53 am71 °FSunny.5 mph73%30.22 "Hg10 mi
6:53 am69 °FPassing clouds.6 mph76%30.21 "Hg10 mi
5:53 am69 °FPassing clouds.5 mph76%30.20 "Hg10 mi
4:53 am69 °FClear.5 mph76%30.19 "Hg10 mi
3:53 am70 °FClear.8 mph73%30.20 "Hg10 mi
2:53 am70 °FPassing clouds.7 mph73%30.21 "Hg10 mi
1:53 am69 °FClear.6 mph76%30.22 "Hg10 mi
12:53 am70 °FClear.5 mph71%30.22 "Hg10 mi
11:53 pm
Mon, Jan 16
72 °FClear.10 mph66%30.22 "Hg10 mi
10:53 pm72 °FPassing clouds.10 mph68%30.23 "Hg10 mi
9:53 pm73 °FClear.10 mph66%30.24 "Hg10 mi
8:53 pm73 °FClear.9 mph66%30.23 "Hg10 mi
7:53 pm73 °FClear.8 mph69%30.22 "Hg10 mi
6:53 pm73 °FPassing clouds.7 mph71%30.23 "Hg10 mi
5:53 pm74 °FPassing clouds.8 mph67%30.22 "Hg10 mi
4:53 pm76 °FScattered clouds.10 mph60%30.22 "Hg10 mi
Weather by CustomWeather, © 2017

See weather overviewHow to use our weather pages